This is the latest recevied weather packets stored in our database for station/object KE8KMM. If no packets are shown the sender has not sent any weather packets the latest 1 day(s).
| Time | Temp. | Humidity | Pressure | Rain* | Wind** | Luminosity | Snow |
|---|---|---|---|---|---|---|---|
| 1778107029 | 13.89° C | 62% | 1010.9 hPa | 0 mm | - | 70 W/m² | - |
| 1778106422 | 13.89° C | 61% | 1010.9 hPa | 0 mm | - | 77 W/m² | - |
| 1778106117 | 13.89° C | 61% | 1010.9 hPa | 0 mm | - | 58 W/m² | - |
| 1778105210 | 14.44° C | 58% | 1011 hPa | 0 mm | - | 115 W/m² | - |
| 1778104905 | 14.44° C | 60% | 1010.6 hPa | 0 mm | - | 158 W/m² | - |
| 1778104602 | 14.44° C | 59% | 1010.3 hPa | 0 mm | - | 123 W/m² | - |
| 1778103692 | 14.44° C | 62% | 1010.4 hPa | 0 mm | - | 115 W/m² | - |
| 1778103390 | 15° C | 58% | 1010.3 hPa | 0 mm | - | 124 W/m² | - |
| 1778103087 | 15° C | 64% | 1010.3 hPa | 0 mm | - | 113 W/m² | - |
| 1778101872 | 15° C | 59% | 1010.2 hPa | 0 mm | - | 88 W/m² | - |
| 1778101569 | 15° C | 59% | 1010 hPa | 0 mm | - | 115 W/m² | - |
| 1778101265 | 15° C | 57% | 1010.1 hPa | 0 mm | - | 168 W/m² | - |
| 1778100962 | 15.56° C | 55% | 1010.1 hPa | 0 mm | - | 168 W/m² | - |
| 1778100657 | 15.56° C | 57% | 1010 hPa | 0 mm | - | 251 W/m² | - |
| 1778096112 | 15.56° C | 60% | 1009.9 hPa | 0 mm | - | 331 W/m² | - |
| 1778094595 | 15.56° C | 59% | 1010 hPa | 0 mm | - | 382 W/m² | - |
| 1778094292 | 15.56° C | 60% | 1010.1 hPa | 0 mm | - | 342 W/m² | - |
| 1778093383 | 15° C | 57% | 1010.4 hPa | 0 mm | - | 393 W/m² | - |
| 1778092777 | 15° C | 63% | 1010.1 hPa | 0 mm | - | 293 W/m² | - |
| 1778091867 | 15° C | 64% | 1010.1 hPa | 0 mm | - | 331 W/m² | - |
| 1778091564 | 14.44° C | 65% | 1010.4 hPa | 0 mm | - | 278 W/m² | - |
| 1778091262 | 14.44° C | 66% | 1010.2 hPa | 0 mm | - | 228 W/m² | - |
| 1778090352 | 15° C | 66% | 1010.1 hPa | 0 mm | - | 278 W/m² | - |
| 1778089140 | 15.56° C | 67% | 1010.4 hPa | 0 mm | - | 296 W/m² | - |
| 1778088534 | 15° C | 68% | 1010.2 hPa | 0 mm | - | 553 W/m² | - |
* Rain latest hour (hover to see other rain measurements)
** Current wind speed in m/s (hover to see current wind gust speed)